[[{"header":{"parameterUnit":"m.s-1","parameterCategory":1,"la1":30.2992,"la2":30.254,"lo1":-89.0895,"lo2":-89.0443,"dy":0.0025,"dx":0.0025,"nx":19,"ny":19,"refTime":"2026-05-08T09:00:00:Z","depth":0,"parameterNumber":2,"parameterNumberName":"U-component_of_WINDS"},"data":[0,0,0,-0.0527,-0.053,-0.0669,-0.067,-0.084,-0.0842,0,0,0,0,0,0,0,0,0,0,0,-0.0481,-0.0482,-0.0527,-0.053,-0.0669,-0.067,-0.084,-0.0842,0,0,0,0,0,0,0,0,0,0,0,-0.048,-0.0481,-0.0483,-0.0531,-0.0669,-0.067,-0.084,-0.0738,0,0,0,0,0,0,0,0,0,0,-0.0604,-0.0556,-0.0481,-0.0483,-0.0531,-0.0669,-0.067,-0.0733,-0.0744,-0.0774,0,-0.0798,0,-0.0823,-0.0853,-0.0853,0,0,0,-0.0534,-0.0546,-0.0588,-0.0483,-0.0533,-0.0669,-0.0608,-0.0739,-0.0752,-0.0789,-0.0801,-0.0808,-0.0825,-0.0854,-0.0855,-0.1011,-0.1012,0,0,-0.0527,-0.0503,-0.058,-0.0596,-0.0574,-0.0603,-0.0612,-0.0747,-0.0759,-0.0802,-0.0812,-0.0828,-0.0855,-0.0856,-0.1011,-0.1011,0,0,0,-0.0502,-0.0498,-0.0537,-0.0589,-0.0615,-0.0607,-0.0617,-0.0753,-0.0768,-0.0814,-0.083,-0.0856,-0.0858,-0.101,-0.1011,-0.1016,0,0,0,-0.0497,-0.0483,-0.0533,-0.052,-0.0612,-0.0686,-0.062,-0.0758,-0.0774,-0.0829,-0.0856,-0.0859,-0.101,-0.1011,-0.1014,-0.1022,0,0,0,-0.0473,-0.048,-0.0499,-0.0519,-0.0577,-0.0684,-0.0706,-0.0762,-0.0784,-0.0853,-0.086,-0.1009,-0.1011,-0.1013,-0.102,-0.1057,0,0,0,-0.0441,-0.0501,-0.0498,-0.0571,-0.0576,-0.0685,-0.0706,-0.0788,-0.0848,-0.0857,-0.101,-0.1011,-0.1013,-0.1019,-0.1056,-0.1085,-0.1095,0,0,-0.0504,-0.0508,-0.0553,-0.0554,-0.0657,-0.0665,-0.077,-0.0847,-0.0875,-0.0964,-0.0969,-0.1015,-0.102,-0.1057,-0.1154,-0.1162,0,0,0,-0.0565,-0.0597,-0.0629,-0.0684,-0.0743,-0.0795,-0.0858,-0.0887,-0.0963,-0.0916,-0.1038,-0.1042,-0.1065,-0.108,-0.1086,-0.1108,-0.1017,-0.1016,-0.1016,-0.0622,-0.0653,-0.0729,-0.0777,-0.083,-0.0894,-0.094,-0.0989,-0.1007,-0.1035,-0.1062,-0.1117,-0.1134,-0.1139,-0.1161,-0.1079,-0.1079,-0.1079,-0.1079,-0.0717,-0.0768,-0.0788,-0.0869,-0.0902,-0.0971,-0.1034,-0.1043,-0.1113,-0.1099,-0.1121,-0.1105,-0.1146,-0.1167,-0.108,-0.1079,-0.1079,-0.1079,-0.1079,-0.0759,-0.0789,-0.0821,-0.0904,-0.0963,-0.101,-0.1075,-0.1103,-0.1129,-0.115,-0.1183,-0.1183,-0.1188,-0.1163,-0.1163,-0.1164,-0.1164,-0.1164,-0.1164,-0.0791,-0.0827,-0.0879,-0.0945,-0.0984,-0.1038,-0.1101,-0.114,-0.1191,-0.1206,-0.1206,-0.1221,-0.1143,-0.1124,-0.1167,-0.1167,-0.1166,-0.1166,-0.1166,-0.088,-0.0864,-0.0943,-0.0981,-0.1062,-0.1119,-0.1152,-0.1229,-0.1265,-0.1297,-0.1306,-0.1244,-0.125,-0.1246,-0.123,-0.1298,-0.1298,-0.1298,-0.1298,-0.0917,-0.0921,-0.1009,-0.1068,-0.113,-0.1167,-0.1257,-0.1306,-0.1354,-0.1379,-0.1372,-0.1353,-0.1347,-0.1358,-0.135,-0.1337,-0.143,-0.143,-0.143,-0.0973,-0.0985,-0.1056,-0.1102,-0.1166,-0.1221,-0.1306,-0.1374,-0.1426,-0.1436,-0.1399,-0.1393,-0.1363,-0.1351,-0.1363,-0.1351,-0.1326,0,0]},{"header":{"parameterUnit":"m.s-1","parameterCategory":1,"la1":30.2992,"la2":30.254,"lo1":-89.0895,"lo2":-89.0443,"dy":0.0025,"dx":0.0025,"nx":19,"ny":19,"refTime":"2026-05-08T09:00:00:Z","depth":0,"parameterNumber":3,"parameterNumberName":"V-component_of_WINDS"},"data":[0,0,0,1.7917,1.7918,1.7983,1.7983,1.8051,1.8051,0,0,0,0,0,0,0,0,0,0,0,1.7891,1.7891,1.7917,1.7918,1.7983,1.7983,1.8051,1.8051,0,0,0,0,0,0,0,0,0,0,0,1.7891,1.7891,1.7891,1.7918,1.7983,1.7983,1.8051,1.8006,0,0,0,0,0,0,0,0,0,0,1.7946,1.7916,1.7891,1.7891,1.7919,1.7983,1.7983,1.8005,1.8009,1.8016,0,1.8022,0,1.8038,1.8055,1.8055,0,0,0,1.7923,1.7912,1.7936,1.7891,1.7919,1.7983,1.7955,1.8007,1.8013,1.8022,1.8023,1.8026,1.8039,1.8055,1.8056,1.8083,1.8083,0,0,1.7919,1.7898,1.7932,1.7939,1.7931,1.7953,1.7957,1.8011,1.801,1.8023,1.8027,1.804,1.8056,1.8056,1.8083,1.8083,0,0,0,1.7906,1.7895,1.7918,1.7936,1.7949,1.7955,1.7959,1.8007,1.8017,1.8028,1.8041,1.8056,1.8057,1.8083,1.8083,1.8059,0,0,0,1.7904,1.7888,1.7917,1.7904,1.7948,1.7979,1.7954,1.8013,1.802,1.804,1.8056,1.8057,1.8083,1.8083,1.806,1.8051,0,0,0,1.7889,1.7886,1.7894,1.7903,1.7931,1.7979,1.7992,1.8015,1.8027,1.8055,1.8057,1.8083,1.8083,1.8061,1.8052,1.8052,0,0,0,1.7866,1.7871,1.7893,1.7902,1.793,1.7965,1.7992,1.8018,1.804,1.8056,1.8083,1.8083,1.8061,1.8053,1.8052,1.8047,1.8043,0,0,1.786,1.7869,1.7877,1.7898,1.7924,1.7957,1.7978,1.8017,1.8037,1.8066,1.8067,1.806,1.8053,1.8052,1.803,1.8027,0,0,0,1.7867,1.7872,1.7884,1.7905,1.7936,1.796,1.7998,1.8012,1.8038,1.8049,1.8061,1.8057,1.8057,1.8055,1.8053,1.8053,1.8082,1.8082,1.8082,1.7827,1.7856,1.7869,1.7905,1.7924,1.7964,1.7981,1.8006,1.8027,1.803,1.8038,1.8022,1.8019,1.8017,1.8018,1.8038,1.8038,1.8038,1.8038,1.782,1.7831,1.7861,1.7885,1.7913,1.7932,1.7969,1.7984,1.8004,1.8018,1.8019,1.8031,1.8013,1.8014,1.8037,1.8037,1.8037,1.8037,1.8037,1.7796,1.7806,1.7825,1.7858,1.788,1.7915,1.7934,1.7959,1.7982,1.7984,1.7994,1.7995,1.7997,1.7988,1.7987,1.7987,1.7987,1.7987,1.7987,1.7764,1.7786,1.78,1.7834,1.785,1.7875,1.7914,1.793,1.7953,1.797,1.797,1.799,1.8007,1.801,1.7986,1.7987,1.7987,1.7987,1.7987,1.7744,1.7753,1.7774,1.7791,1.7832,1.7851,1.7884,1.7914,1.793,1.7938,1.7958,1.7967,1.7977,1.798,1.7982,1.7953,1.7953,1.7953,1.7953,1.7722,1.7731,1.7759,1.7784,1.7811,1.7843,1.7863,1.7893,1.7925,1.7937,1.7945,1.795,1.7952,1.7961,1.7964,1.7967,1.7934,1.7934,1.7934,1.7711,1.7723,1.7738,1.7772,1.7806,1.7833,1.7853,1.7878,1.7916,1.7934,1.7946,1.7946,1.7956,1.7958,1.7975,1.7979,1.7985,0,0]}]]